Location: Heilbronn
(49.1548°N, 9.2780°E)
Time: 10:27:16
(UTC+01:00)

ISS - Pass Details

Date: 24 February 2019
Orbit: 406 x 411 km, 51.6° (Epoch: 21 March)

Event Time Altitude Azimuth Distance (km) Brightness Sun altitude
Exits shadow 05:38:17 - 188° (S) 2,281 -0.1 -16.7°
Reaches altitude 10° 05:41:43 10° 148° (SSE) 1,460 -0.6 -16.1°
Maximum altitude 05:42:28 11° 134° (SE) 1,426 -0.5 -16.0°
Drops below altitude 10° 05:43:14 10° 121° (ESE) 1,463 -0.2 -15.9°
Sets 05:46:47 0° 81° (E) 2,331 1.9 -15.3°
